Regional Weather Roundup
Issued by NWS Newport/Morehead, NC

Current Version | Previous Version | Graphics & Text | Print | Product List | Glossary Off
Versions: 1 2 3 4 5 6 7 8 9 10 11 12 13 14 15 16 17 18 19 20 21 22 23 24 25 26 27 28 29 30 31 32 33 34 35 36 37 38 39 40 41 42 43 44 45 46 47 48 49 50

000
ASUS42 KMHX 040813
RWRMHX
WEATHER ROUNDUP FOR EASTERN NORTH CAROLINA
NATIONAL WEATHER SERVICE NEWPORT/MOREHEAD CITY NC
400 AM EDT FRI SEP 04 2015

NOTE: "FAIR" INDICATES FEW OR NO CLOUDS BELOW 12,000 FEET
WITH NO SIGNIFICANT WEATHER AND/OR OBSTRUCTIONS TO VISIBILITY

NCZ015>017-031-032-045>047-102-103-040900-
NORTH COAST

CITY           SKY/WX    TMP DP  RH WIND       PRES   REMARKS
EDENTON        CLEAR     71  69  94 CALM      29.91R
ELIZABETH CITY PTCLDY    73  71  93 S6        29.90R
KITTY HAWK     MOSUNNY   76  74  93 CALM      29.89R FOG
MANTEO         PTCLDY    76  74  93 W3        29.90S

$$

NCZ045>047-081-094-103-104-040900-
CENTRAL COAST

CITY           SKY/WX    TMP DP  RH WIND       PRES   REMARKS
FRISCO         CLEAR     78  74  87 N3        29.90R
SWANQUARTER      N/A     73 N/A N/A CALM      29.88R

$$

NCZ095-097-098-100-101-040900-
SOUTHERN COAST

CITY           SKY/WX    TMP DP  RH WIND       PRES   REMARKS
BEAUFORT       CLEAR     73  73 100 N3        29.90S
CEDAR ISLAND     N/A     77 N/A N/A W5        29.94S
JACKSONVILLE   CLEAR     72  70  93 CALM      29.90S
PINEY ISLAND   FLURRIES N/A N/A N/A NW5       29.90S
WILMINGTON     CLEAR     71  69  93 CALM      29.91S


$$

NCZ011>013-027>030-043-044-078>080-089-090>093-098-040900-
COASTAL PLAIN

CITY           SKY/WX    TMP DP  RH WIND       PRES   REMARKS
AHOSKIE        PTCLDY    69  68  98 CALM      29.91S FOG
CLINTON        CLEAR     70  70 100 CALM      29.92S
ELIZABETHTOWN  CLEAR     73  72  96 CALM      29.91S
GOLDSBORO      CLEAR     72  71  96 CALM      29.90S
GREENVILLE     PTCLDY    72  72 100 CALM      29.93S FOG
HAVELOCK       CLEAR     73  70  90 CALM      29.92R
KENANSVILLE      N/A     69  68  97 CALM      29.93R FOG
KINSTON        CLEAR     71  70  97 CALM      29.92R
NEW BERN       CLEAR     71  69  93 CALM      29.92R
RICHLANDS      CLEAR     70  64  83 CALM      29.91S
ROCKY MOUNT    FOG       71  70  96 CALM      29.92R VSB 1
WASHINGTON     CLEAR     70  69  96 CALM      29.91R
WHITEVILLE     CLEAR     70  68  94 CALM      29.92R

$$

AMZ130-135-150-152-154-156-158-170-250-252-270-ANZ085-086-088-633-658-670-040900-
MARINE OBSERVATIONS

STATION/POSITION TIME  TEMP    WIND        PRES    WAVE   SWELL
                       AIR SEA DIR/SP/G            HT/PER HT/PER
                 (UTC) (F)     (DEG/KT/KT) (MB)    (FT/S) (FT/S)
CHESAPEAKE LIGHT 0800   78     280/  5/  5 1013.1
64 E VA BEACH    0750   79 79  260/  4/  6 1011.8    1/ 9   2/ 9
DUCK             0700   80 80  260/  5/  5 1011.2
2 E DUCK         0711      80                N/A     1/13
OREGON INLET     0700   79 83  270/  4/  5 1012.0
13E OREGON INLT  0800      81                N/A     1/13
HATTERAS CG      0700   81 83  310/  6/  6 1011.9
DIAMOND BUOY     0750   81 85  330/  6/  8 1012.4    1/12   2/12
CAPE LOOKOUT     0800   79     340/  6/  7 1012.1
BEAUFORT LAB     0700   78 82  330/  2/  4 1011.8
30 SE NEW RVR IN 0708   80 81  360/  4/  6 1012.6
30 SE NEW RVR IN 0725      81                N/A     1/ 8
27 SE WRIGHTSVLE 0700   77 82  300/  2/  2   N/A
5 SE WRIGHTSVLE  0708   79 82  290/  4/  6 1012.7
225 S CAPE HAT   0750   83 84  280/  2/  4 1012.3    2/12   2/12
41 SE CHARLESTON 0750   82 84  250/  8/ 10 1012.4    2/ 5   2/ 5

$$


USA.gov is the U.S. government's official web portal to all federal, state and local government web resources and services.